Location: Goll?ig?dem
(16.6773°N, 80.7332°E)
Time: 08:06:43
(UTC+00:00)

Cosmos 2333 Rocket - Pass Details

Date: 21 April 2021
Orbit: 838 x 864 km, 70.8° (Epoch: 06 May)

Event Time Altitude Azimuth Distance (km) Brightness Sun altitude
Rises 14:22:40 0° 352° (N) 3,425 5.8 -21.2°
Reaches altitude 10° 14:25:13 10° 358° (N) 2,484 4.9 -21.8°
Maximum altitude 14:30:42 48° 72° (ENE) 1,105 2.4 -23.0°
Enters shadow 14:30:57 47° 80° (E) 1,109 2.4 -23.0°
